Total_Precipitation_Accumulation
1.79 1.78 1.64 1.59 1.42 1.54 1.83 2.08 2.01 2.16 2.32 2.22 1.95 1.82 1.72 1.56 1.54 1.48 1.59 1.80 1.70 1.78 2.06 2.14 2.09 1.96 1.88 1.69 1.51 1.41 1.35 1.24 1.04 0.79 0.63 0.60 0.54 0.42 0.36 0.36 0.34 0.32 0.27
2.00 1.99 1.82 1.72 1.46 1.47 1.70 1.98 2.00 2.17 2.20 2.22 1.87 1.73 1.63 1.65 1.62 1.50 1.56 1.75 1.75 1.62 1.77 2.07 2.27 2.33 2.21 2.06 1.82 1.58 1.46 1.36 1.15 0.88 0.69 0.64 0.60 0.53 0.51 0.51 0.44 0.34 0.24
2.23 2.18 2.01 1.74 1.61 1.73 1.82 1.83 1.88 2.27 2.13 2.00 1.80 1.86 1.83 1.76 1.63 1.57 1.56 1.68 1.53 1.48 1.50 1.67 1.98 2.24 2.48 2.46 2.23 2.00 1.72 1.48 1.21 0.94 0.75 0.62 0.56 0.53 0.54 0.54 0.54 0.43 0.28
2.18 2.30 1.97 1.65 1.78 1.94 1.90 1.85 1.91 2.13 2.14 2.23 2.13 1.99 1.87 1.74 1.40 1.32 1.35 1.38 1.48 1.26 1.37 1.62 1.76 1.88 2.32 2.65 2.73 2.67 2.22 1.74 1.34 1.03 0.84 0.69 0.62 0.57 0.50 0.45 0.44 0.45 0.34
1.61 1.63 1.34 1.24 1.45 1.54 1.41 1.36 1.63 1.79 1.83 1.97 1.94 1.76 1.53 1.38 1.23 1.15 1.18 1.03 1.10 1.14 1.18 1.42 1.64 1.70 2.13 2.71 3.20 3.36 2.98 2.35 1.79 1.36 1.16 1.01 0.86 0.68 0.54 0.48 0.44 0.44 0.36
1.19 1.21 0.98 0.92 1.16 1.28 1.23 1.33 1.40 1.41 1.36 1.44 1.33 1.15 1.10 0.95 0.97 0.96 0.84 0.83 0.82 0.82 0.95 1.15 1.41 1.31 1.79 2.45 2.97 3.24 3.27 2.87 2.28 1.87 1.68 1.47 1.29 0.99 0.66 0.51 0.47 0.44 0.36
1.12 1.19 1.00 1.06 1.16 1.18 1.16 1.20 1.21 1.14 0.98 1.13 1.26 1.08 0.88 0.80 0.79 0.70 0.66 0.68 0.62 0.69 0.90 1.09 1.26 1.34 1.30 1.46 1.92 2.38 2.93 3.19 2.81 2.34 2.11 1.91 1.72 1.37 0.95 0.74 0.59 0.48 0.41
0.98 1.02 1.00 0.83 0.86 0.91 0.84 0.86 1.02 1.06 0.91 1.00 1.13 1.11 0.91 0.90 0.79 0.51 0.53 0.57 0.55 0.67 0.83 0.94 1.16 1.33 1.32 1.50 1.22 1.48 2.20 2.78 3.07 2.93 2.57 2.13 1.83 1.51 1.21 1.02 0.79 0.61 0.52
0.74 0.77 0.75 0.73 0.79 0.80 0.82 0.80 0.83 0.88 0.83 0.79 0.90 1.07 0.94 0.77 0.66 0.56 0.51 0.48 0.56 0.72 0.82 0.99 1.05 1.12 1.23 1.46 1.45 1.33 1.65 1.87 2.59 3.13 2.98 2.39 1.77 1.38 1.24 1.25 1.13 0.86 0.71
0.62 0.60 0.62 0.59 0.63 0.68 0.80 0.69 0.71 0.73 0.74 0.65 0.67 0.75 0.76 0.75 0.72 0.62 0.54 0.52 0.56 0.69 0.85 0.92 1.06 1.13 1.13 1.23 1.42 1.34 1.22 1.29 1.74 2.40 2.74 2.61 2.11 1.57 1.31 1.40 1.65 1.55 1.14
0.64 0.60 0.59 0.59 0.55 0.53 0.58 0.62 0.70 0.67 0.66 0.61 0.60 0.64 0.72 0.75 0.73 0.68 0.64 0.59 0.52 0.47 0.61 0.80 0.96 1.06 1.01 1.11 1.37 1.38 1.29 1.20 1.13 1.31 1.78 2.13 2.15 1.87 1.57 1.64 2.10 2.40 2.20
0.71 0.69 0.65 0.66 0.59 0.54 0.56 0.57 0.60 0.59 0.63 0.68 0.65 0.66 0.77 0.80 0.74 0.73 0.67 0.61 0.55 0.47 0.51 0.68 0.93 1.07 1.05 1.08 0.99 0.98 1.02 0.94 0.88 0.88 1.03 1.27 1.55 1.71 1.75 1.89 2.25 2.66 2.90
0.65 0.72 0.74 0.70 0.66 0.64 0.60 0.59 0.58 0.57 0.62 0.70 0.67 0.64 0.67 0.72 0.76 0.76 0.71 0.63 0.65 0.63 0.74 0.77 0.84 0.97 0.95 1.00 0.94 0.80 0.65 0.61 0.58 0.60 0.75 0.93 1.15 1.41 1.57 1.67 1.94 2.28 2.56
0.63 0.71 0.74 0.67 0.63 0.61 0.60 0.63 0.56 0.52 0.60 0.68 0.71 0.81 0.77 0.67 0.79 0.86 0.83 0.83 0.81 0.86 1.01 0.93 0.85 0.85 0.88 0.91 0.83 0.71 0.54 0.49 0.44 0.42 0.46 0.49 0.57 0.71 0.86 1.01 1.19 1.42 1.64
0.73 0.76 0.70 0.68 0.64 0.61 0.62 0.64 0.62 0.64 0.68 0.70 0.79 0.94 0.97 0.88 0.83 0.88 0.95 1.02 1.09 1.06 1.03 0.95 0.85 0.78 0.78 0.78 0.72 0.62 0.50 0.47 0.45 0.40 0.37 0.36 0.38 0.44 0.48 0.52 0.58 0.67 0.75
0.77 0.81 0.79 0.75 0.71 0.67 0.69 0.76 0.73 0.72 0.79 0.86 0.99 1.09 1.11 1.10 1.06 0.97 1.01 1.05 1.09 1.15 1.10 0.90 0.84 0.85 0.78 0.64 0.65 0.58 0.48 0.50 0.45 0.40 0.37 0.34 0.33 0.38 0.41 0.42 0.40 0.42 0.47
0.76 0.76 0.76 0.78 0.75 0.78 0.92 1.11 1.09 1.00 1.01 1.06 1.15 1.26 1.30 1.33 1.30 1.16 1.11 1.08 1.08 1.17 1.09 0.89 0.84 0.85 0.73 0.59 0.56 0.54 0.51 0.49 0.43 0.44 0.39 0.34 0.32 0.33 0.37 0.38 0.37 0.36 0.37
0.71 0.63 0.64 0.70 0.70 0.77 0.93 1.20 1.33 1.32 1.27 1.17 1.24 1.41 1.48 1.42 1.30 1.20 1.18 1.12 1.09 1.18 1.12 1.00 1.00 0.94 0.85 0.75 0.67 0.61 0.53 0.49 0.48 0.54 0.48 0.38 0.34 0.32 0.31 0.31 0.31 0.30 0.31
0.75 0.72 0.71 0.75 0.82 0.83 0.84 1.00 1.19 1.26 1.26 1.21 1.28 1.33 1.36 1.42 1.34 1.27 1.19 1.12 1.10 1.20 1.21 1.12 1.18 1.18 1.06 0.92 0.81 0.69 0.61 0.60 0.49 0.48 0.48 0.43 0.40 0.36 0.33 0.31 0.30 0.29 0.27
0.83 0.83 0.83 0.86 0.89 0.87 0.86 0.96 1.08 1.16 1.20 1.21 1.26 1.29 1.32 1.32 1.35 1.40 1.30 1.24 1.26 1.30 1.31 1.28 1.29 1.43 1.32 1.12 0.95 0.80 0.68 0.63 0.56 0.44 0.46 0.50 0.47 0.41 0.36 0.32 0.30 0.29 0.30
0.87 0.93 1.01 1.00 0.97 0.91 0.85 0.99 1.09 1.08 1.15 1.18 1.16 1.12 1.18 1.35 1.43 1.46 1.34 1.31 1.37 1.36 1.35 1.39 1.38 1.48 1.49 1.33 1.07 0.84 0.76 0.74 0.68 0.59 0.53 0.46 0.43 0.40 0.36 0.36 0.35 0.33 0.30
0.97 1.06 1.13 1.14 1.08 0.92 1.00 1.11 1.11 1.08 1.11 1.12 1.10 1.04 1.01 1.09 1.20 1.28 1.24 1.19 1.23 1.28 1.34 1.37 1.43 1.51 1.57 1.48 1.29 1.10 0.96 0.84 0.79 0.76 0.77 0.69 0.57 0.54 0.45 0.38 0.40 0.40 0.37
1.14 1.14 1.13 1.15 1.14 1.14 1.13 1.03 0.97 0.91 0.95 1.00 0.99 0.94 0.81 0.77 0.96 1.04 1.15 1.17 1.12 1.11 1.16 1.30 1.42 1.45 1.58 1.63 1.54 1.32 1.21 1.09 0.91 0.87 0.91 0.88 0.79 0.68 0.54 0.49 0.54 0.45 0.41
1.34 1.32 1.27 1.28 1.35 1.31 1.24 1.08 0.99 0.87 0.87 0.89 0.88 0.86 0.85 0.84 0.86 0.94 1.06 1.13 1.12 1.07 1.05 1.08 1.20 1.38 1.53 1.68 1.65 1.53 1.44 1.29 1.07 0.95 0.94 0.90 0.83 0.76 0.64 0.58 0.59 0.52 0.46
1.65 1.65 1.60 1.62 1.63 1.66 1.58 1.32 1.19 1.03 0.99 0.95 0.98 1.01 1.01 0.94 0.94 0.89 0.92 0.99 1.02 1.07 1.03 1.02 1.06 1.23 1.40 1.52 1.65 1.58 1.46 1.29 1.10 0.96 0.91 0.85 0.78 0.78 0.72 0.61 0.53 0.51 0.43
2.00 1.98 1.99 1.99 1.92 1.90 1.80 1.47 1.30 1.15 1.17 1.15 1.19 1.15 1.06 0.94 0.87 0.81 0.84 0.90 0.89 0.88 0.96 0.99 0.98 1.05 1.19 1.30 1.45 1.43 1.30 1.26 1.09 0.94 0.81 0.77 0.70 0.73 0.75 0.64 0.56 0.50 0.45